Weather Roundup
Issued by NWS Chicago, IL

Home | Current Version | Previous Version | Graphics & Text | Print | Product List | Glossary On
Versions: 1 2 3 4 5 6 7 8 9 10 11 12 13 14 15 16 17 18 19 20 21 22 23 24 25 26 27 28 29 30 31 32 33 34 35 36 37 38 39 40 41 42 43 44 45 46 47 48 49 50
000
NZUS59 KLOT 300408
HRRLOT

CHICAGO AREA WEATHER ROUNDUP
NATIONAL WEATHER SERVICE CHICAGO/ROMEOVILLE IL
1100 PM CDT MON JUN 29 2015

NOTE: "FAIR" INDICATES FEW OR NO CLOUDS BELOW 12,000 FEET WITH NO
SIGNIFICANT WEATHER AND/OR OBSTRUCTIONS TO VISIBILITY.

* THESE STATIONS ARE NOT UNDER NWS QUALITY CONTROL. THEY ALSO MAY NOT
  REPORT WEATHER SUCH AS PRECIPITATION OR FOG.

ILZ005-006-012>014-019>023-300500-
NORTHEAST ILLINOIS

CITY           SKY/WX    TMP DP  RH WIND       PRES   REMARKS
OHARE          PTCLDY    66  64  93 SW5       29.79F
MIDWAY         PTCLDY    69  65  86 S6        29.79F
AURORA         PTCLDY    64  61  90 S3        29.81S
LANSING*       CLEAR     64  62  93 CALM      29.81S FOG
JOLIET*        FOG       64  63  98 CALM      29.81S VSB 1
WAUKEGAN       PTCLDY    62  61  96 SE3       29.78F
DUPAGE AIRPORT PTCLDY    63  61  93 S3        29.79F
WHEELING       CLEAR     65  62  90 CALM      29.81S
KANKAKEE*      PTCLDY    64  64  97 CALM      29.83R
MORRIS*        CLEAR     65  64  96 S3        29.79F FOG
LEWIS AIRPORT* CLEAR     64  64  99 SW3       29.81S FOG
NORTHERLY IS     N/A     64  62  93 S3          N/A
$$

WIZ051-052-058>065-066-070>072-300500-
SOUTHEAST WISCONSIN

CITY           SKY/WX    TMP DP  RH WIND       PRES   REMARKS
MILWAUKEE      MOCLDY    63  60  90 S8        29.78F
KENOSHA*       PTCLDY    64  61  90 S5        29.78F FOG
RACINE*        CLOUDY    63  61  93 S7        29.79F FOG
BURLINGTON     LGT RAIN  60  60  98 CALM      29.78F
WAUKESHA       MOCLDY    63  61  94 CALM      29.79F
WEST BEND      CLOUDY    63  61  94 SE3       29.78S
$$

INZ001>003-010>013-019-020-300500-
NORTHWEST INDIANA

CITY           SKY/WX    TMP DP  RH WIND       PRES   REMARKS
GARY*          CLEAR     66  66  99 CALM      29.81S FOG
MICHIGAN CITY* NOT AVBL
RENSSELAER*    NOT AVBL
VALPARAISO     MOCLDY    63  61  93 E3        29.82S
$$

LMZ740>746-300500-
SOUTHERN LAKE MICHIGAN

STATION/POSITION TIME  SKY/WX   TEMP WIND        PRES    VSBY
                                AIR  DIR/SP/G
                 (UTC)          (F)  (DEG/KT/KT) (MB)    (MI)
HARRISON CRIB    0300            64  170/  5/  6   N/A
BURNHAM HARBOR   0400            64  150/  4       N/A
CALUMET HARBOR   0300            66   CALM  /  2   N/A
BURNS HARBOR     0300            68  170/  6/  9 1010.2R
MICHIGAN CITY    0300            66  120/  8/ 11   N/A
$$

ABBREVIATIONS USED IN REMARKS
   TC - TEMPERATURE IN CELSIUS
  WCI - WIND CHILL INDEX
   HX - HEAT INDEX
  VSB - VISIBILITY
$$


USA.gov is the U.S. government's official web portal to all federal, state and local government web resources and services.